Location: Deer Lodge Site
(39.6809°N, 119.9392°W)
Time: 05:24:50
(UTC-07:00)

Amateur Radio Satellites - All Passes

Search period start: 04 September 2015 04:54
Search period end: 05 September 2015 04:54
Location: Deer Lodge Site, 39.6809°N, 119.9392°W

Satellite Date Start Highest point End Downlink Frequencies (MHz)
Time Altitude Azimuth
PHONESAT 2.4 04 Sep 05:03:20 05:06:41 54° 161° (SSE) 05:10:02 2401.200-2431.200
JAS-2 04 Sep 05:11:09 05:17:09 33° 295° (WNW) 05:22:27 435.910
O/OREOS (USA 219) 04 Sep 05:23:33 05:27:39 31° 255° (WSW) 05:31:39 437.305
MOZHAYETS 4 04 Sep 05:34:50 05:38:36 24° 266° (W) 05:42:16
STRAND 1 04 Sep 05:46:36 05:48:31 12° 62° (ENE) 05:50:43 437.568
HORYU 2 04 Sep 05:59:06 06:02:50 26° 291° (WNW) 06:06:27 437.375
CUBESAT XI-V 04 Sep 06:00:59 06:05:28 55° 74° (ENE) 06:09:59 437.345
Cubesat XI-IV 04 Sep 06:21:22 06:25:12 21° 92° (E) 06:29:13 437.490
VERMONT LUNAR 04 Sep 06:23:06 06:26:01 55° 198° (SSW) 06:28:56 437.305
PRISM 04 Sep 06:26:41 06:29:12 16° 67° (ENE) 06:31:51 437.425
ISS 04 Sep 06:33:25 06:34:39 12° 130° (SE) 06:36:00 145.825
Cosmos 2499 04 Sep 06:35:48 06:41:35 18° 300° (WNW) 06:47:00 435.465 / 435.565
PHONESAT 2.4 04 Sep 06:41:07 06:44:32 76° 356° (N) 06:47:57 2401.200-2431.200
AO-7 04 Sep 06:48:09 06:55:02 29° 302° (WNW) 07:01:42 29.400- 29.500
AIST 1 04 Sep 07:02:02 07:04:28 16° 88° (E) 07:07:05
CUTE-I 04 Sep 07:04:11 07:09:23 52° 100° (E) 07:14:36 437.470
STRAND 1 04 Sep 07:22:01 07:27:07 82° 255° (WSW) 07:32:15 437.568
CUBESAT XI-V 04 Sep 07:40:57 07:43:20 13° 271° (W) 07:45:28 437.345
YUBILEINY 04 Sep 07:52:22 08:00:59 55° 76° (ENE) 08:09:34 435.215
HO-68 04 Sep 07:55:36 07:57:26 11° 85° (E) 07:59:52 435.675
Cubesat XI-IV 04 Sep 08:00:30 08:05:36 48° 289° (WNW) 08:10:41 437.490
PRISM 04 Sep 08:00:31 08:04:21 38° 262° (W) 08:08:11 437.425
VERMONT LUNAR 04 Sep 08:00:36 08:02:02 13° 212° (SSW) 08:03:24 437.305
BRITE-PL 04 Sep 08:04:06 08:09:24 42° 97° (E) 08:14:49 437.365/2234.400
ISS 04 Sep 08:07:28 08:10:43 68° 324° (NW) 08:13:58 145.825
DOVE 4 04 Sep 08:09:30 08:12:40 16° 88° (E) 08:16:02 437.250
GOMX 1 04 Sep 08:13:42 08:18:29 31° 94° (E) 08:23:19 467.674
PHONESAT 2.4 04 Sep 08:19:04 08:22:28 76° 193° (SSW) 08:25:52 2401.200-2431.200
AIST 1 04 Sep 08:37:50 08:41:49 38° 283° (WNW) 08:45:48
Cosmos 2491 04 Sep 08:40:09 08:48:31 56° 91° (E) 08:56:59 435.465 / 435.565
CUTE-I 04 Sep 08:45:15 08:49:07 20° 295° (WNW) 08:52:50 437.470
CUTE 1.7 + AOD 2 04 Sep 08:57:29 09:01:06 28° 95° (E) 09:04:45 437.475
SO-50 04 Sep 09:00:38 09:05:25 47° 53° (NE) 09:10:05 436.795
Cosmos 2504 04 Sep 09:04:40 09:10:32 21° 63° (ENE) 09:16:30 435.465 / 435.565
CANX-2 04 Sep 09:11:49 09:15:53 46° 98° (E) 09:19:56 2200.000
CUSAT 1 04 Sep 09:12:52 09:17:53 18° 61° (ENE) 09:23:23 437.405
PCSat 04 Sep 09:15:48 09:19:30 19° 44° (NE) 09:23:21 145.827
SEEDS 04 Sep 09:26:09 09:30:11 47° 99° (E) 09:34:13 437.485
UWE-3 04 Sep 09:27:02 09:28:42 12° 88° (E) 09:30:35 435.000/436.395/437.385
CUBEBUG 2 04 Sep 09:27:27 09:30:20 17° 90° (E) 09:33:20 437.445
HO-68 04 Sep 09:39:16 09:46:30 76° 104° (ESE) 09:53:42 435.675
AUBIESAT-1 04 Sep 09:41:21 09:44:32 19° 62° (ENE) 09:47:49 437.475
COMPASS 1 04 Sep 09:41:21 09:45:26 55° 100° (E) 09:49:30 437.405
BRITE-PL 04 Sep 09:43:00 09:47:42 28° 292° (WNW) 09:52:22 437.365/2234.400
ISS 04 Sep 09:45:34 09:47:38 15° 343° (NNW) 09:49:39 145.825
DELFI C3 04 Sep 09:45:35 09:47:17 13° 90° (E) 09:49:10 145.870
DOVE 4 04 Sep 09:45:37 09:50:52 60° 286° (WNW) 09:55:59 437.250
AAUSAT CUBESAT 2 04 Sep 09:48:00 09:52:04 55° 100° (E) 09:56:06 437.432
M-CUBED/EXP-1 PRIME 04 Sep 09:49:47 09:53:44 27° 65° (ENE) 09:57:41 437.505
YUBILEINY 04 Sep 09:49:55 09:57:26 32° 275° (W) 10:04:42 435.215
GOMX 1 04 Sep 09:51:38 09:56:35 35° 290° (WNW) 10:01:28 467.674
Oscar 11 04 Sep 09:53:41 09:57:20 27° 95° (E) 10:01:02 145.826/435.025
PHONESAT 2.4 04 Sep 09:57:22 10:00:03 21° 209° (SSW) 10:02:42 2401.200-2431.200
UNISAT 6 04 Sep 09:58:28 10:02:26 29° 70° (ENE) 10:06:31 437.425
CINEMA 3 04 Sep 10:02:13 10:07:14 89° 283° (WNW) 10:12:02 145.822/145.860
DANDE 04 Sep 10:08:24 10:15:14 32° 69° (ENE) 10:22:43 436.750
DUCHIFAT 1 04 Sep 10:20:25 10:22:49 15° 66° (ENE) 10:25:23 145.980
POLYITAN 1 04 Sep 10:22:18 10:25:03 17° 67° (ENE) 10:27:58 437.675
POPSAT HIP 1 04 Sep 10:23:17 10:26:00 17° 67° (ENE) 10:28:53 437.405
TIGRISAT 04 Sep 10:24:42 10:29:14 51° 74° (ENE) 10:33:50 435.000
CUTE 1.7 + AOD 2 04 Sep 10:33:32 10:36:55 23° 291° (WNW) 10:40:10 437.475
NANOSAT C BR1 04 Sep 10:38:19 10:41:43 24° 69° (ENE) 10:45:14 145.865
Cosmos 2491 04 Sep 10:38:21 10:45:54 31° 292° (WNW) 10:53:16 435.465 / 435.565
QB50P2 04 Sep 10:40:23 10:43:57 27° 70° (ENE) 10:47:37 145.880/145.840
SO-50 04 Sep 10:41:58 10:45:39 21° 249° (WSW) 10:49:07 436.795
ANTELSAT 04 Sep 10:43:20 10:48:02 84° 79° (E) 10:52:47 437.575/2403.000
ZACube-1 04 Sep 10:45:11 10:49:39 69° 101° (E) 10:53:58 437.345
FUNcube-1 04 Sep 10:48:41 10:53:09 73° 102° (ESE) 10:57:28 145.935
CANX-2 04 Sep 10:49:00 10:51:27 15° 293° (WNW) 10:53:43 2200.000
QB50P1 04 Sep 10:53:12 10:57:04 36° 72° (ENE) 11:01:02 145.935-145.965
CUSAT 1 04 Sep 10:53:32 11:01:39 82° 80° (E) 11:09:47 437.405
Cosmos 2504 04 Sep 10:55:29 11:03:55 78° 266° (W) 11:11:45 435.465 / 435.565
HUMSAT D 04 Sep 10:57:07 11:00:56 33° 96° (E) 11:04:43 437.325/437.525
PCSat 04 Sep 10:58:07 11:03:33 72° 244° (WSW) 11:08:55 145.827
VELOX 1 04 Sep 10:59:25 11:01:04 12° 89° (E) 11:02:59 145.980
UWE-3 04 Sep 11:01:14 11:05:44 59° 286° (WNW) 11:10:04 435.000/436.395/437.385
CUBEBUG 2 04 Sep 11:02:53 11:07:20 44° 287° (WNW) 11:11:35 437.445
SEEDS 04 Sep 11:03:18 11:05:37 14° 294° (WNW) 11:07:45 437.485
AUBIESAT-1 04 Sep 11:14:19 11:18:55 49° 256° (WSW) 11:23:25 437.475
DELFI C3 04 Sep 11:18:49 11:22:38 44° 287° (WNW) 11:26:25 145.870
COMPASS 1 04 Sep 11:18:53 11:20:40 12° 294° (WNW) 11:22:15 437.405
M-CUBED/EXP-1 PRIME 04 Sep 11:23:59 11:28:21 34° 259° (WSW) 11:32:37 437.505
ISS 04 Sep 11:24:33 11:25:07 10° 3° (N) 11:25:42 145.825
AAUSAT CUBESAT 2 04 Sep 11:25:29 11:27:14 12° 294° (WNW) 11:28:47 437.432
DX 1 04 Sep 11:28:12 11:32:20 40° 98° (E) 11:36:29 434.975-435.025
HO-68 04 Sep 11:28:20 11:33:35 22° 301° (WNW) 11:38:35 435.675
50 SAT 04 Sep 11:28:53 11:32:17 29° 96° (E) 11:35:40 437.505
Oscar 11 04 Sep 11:29:53 11:33:27 25° 290° (WNW) 11:36:54 145.826/435.025
UKube-1 04 Sep 11:34:20 11:38:28 42° 99° (E) 11:42:36 .
UNISAT 6 04 Sep 11:35:04 11:39:09 28° 265° (W) 11:43:12 437.425
CINEMA 3 04 Sep 11:42:36 11:43:40 10° 299° (WNW) 11:44:25 145.822/145.860
BUGSAT 1 04 Sep 11:43:38 11:47:42 81° 79° (ENE) 11:51:52 437.445
DANDE 04 Sep 11:50:54 11:58:45 61° 265° (W) 12:07:04 436.750
DUCHIFAT 1 04 Sep 11:54:11 11:58:16 46° 261° (W) 12:02:22 145.980
CUBEBUG 1 04 Sep 11:54:46 11:58:42 31° 96° (E) 12:02:41 437.445
POLYITAN 1 04 Sep 11:56:37 12:00:40 40° 262° (W) 12:04:44 437.675
POPSAT HIP 1 04 Sep 11:57:33 12:01:34 40° 262° (W) 12:05:38 437.405
TIGRISAT 04 Sep 12:03:24 12:06:19 16° 270° (W) 12:09:04 435.000
AISAT 04 Sep 12:06:36 12:11:06 73° 102° (ESE) 12:15:34 437.250
ESTCUBE 1 04 Sep 12:08:29 12:12:55 55° 100° (E) 12:17:21 437.505/2401.250
NANOSAT C BR1 04 Sep 12:13:49 12:17:27 27° 265° (W) 12:21:05 145.865
QB50P2 04 Sep 12:16:16 12:19:49 24° 266° (W) 12:23:18 145.880/145.840
ZACube-1 04 Sep 12:23:51 12:25:26 11° 296° (WNW) 12:26:47 437.345
TISAT 1 04 Sep 12:24:57 12:25:21 10° 88° (E) 12:26:02 437.305
FUNcube-1 04 Sep 12:27:40 12:28:53 11° 297° (WNW) 12:29:51 145.935
QB50P1 04 Sep 12:30:05 12:33:05 18° 268° (W) 12:35:59 145.935-145.965
HUMSAT D 04 Sep 12:33:22 12:36:27 19° 292° (WNW) 12:39:23 437.325/437.525
VELOX 1 04 Sep 12:33:39 12:38:05 59° 285° (WNW) 12:42:28 145.980
CUSAT 1 04 Sep 12:37:38 12:43:30 21° 275° (W) 12:49:02 437.405
GONETS M04 04 Sep 12:40:50 12:47:48 27° 66° (ENE) 12:55:05
Oscar 19 04 Sep 12:43:39 12:47:53 27° 67° (ENE) 12:52:13 437.125/150
Cosmos 2504 04 Sep 12:50:58 12:54:47 13° 283° (WNW) 12:57:55 435.465 / 435.565
ISS 04 Sep 13:00:02 13:02:31 20° 23° (NNE) 13:05:01 145.825
50 SAT 04 Sep 13:03:54 13:06:37 18° 291° (WNW) 13:09:12 437.505
JUGNU 04 Sep 13:04:15 13:04:50 10° 178° (S) 13:05:26 437.505
DX 1 04 Sep 13:05:15 13:08:19 18° 293° (WNW) 13:11:15 434.975-435.025
SPROUT 04 Sep 13:09:50 13:14:11 67° 101° (E) 13:18:29 437.525
UKube-1 04 Sep 13:11:22 13:14:17 17° 294° (WNW) 13:17:04 .
CUBEBUG 1 04 Sep 13:31:23 13:34:55 23° 291° (WNW) 13:38:22 437.445
JAS-2 04 Sep 13:36:40 13:42:08 22° 61° (ENE) 13:47:52 435.910
DANDE 04 Sep 13:38:39 13:40:53 11° 279° (W) 13:42:24 436.750
AISAT 04 Sep 13:45:36 13:47:08 11° 297° (WNW) 13:48:25 437.250
ESTCUBE 1 04 Sep 13:46:50 13:49:23 15° 295° (WNW) 13:51:44 437.505/2401.250
ITAMSAT 1 04 Sep 13:51:29 13:55:51 29° 68° (ENE) 14:00:19 435.822/435.867
SWISSCUBE 04 Sep 13:56:44 14:00:16 21° 93° (E) 14:03:56 437.505
Gurwin Techsat 1B 04 Sep 13:57:11 14:02:05 41° 71° (ENE) 14:07:04 435.225
TISAT 1 04 Sep 13:57:21 14:01:37 64° 284° (WNW) 14:05:50 437.305
AO-7 04 Sep 14:03:51 14:08:48 18° 52° (NE) 14:14:09 29.400- 29.500
BEESAT 3 04 Sep 14:22:11 14:26:15 88° 294° (WNW) 14:30:21 437.485
Oscar 19 04 Sep 14:22:20 14:27:06 36° 263° (W) 14:31:52 437.125/150
Cosmos 2499 04 Sep 14:31:45 14:39:18 35° 69° (ENE) 14:46:32 435.465 / 435.565
ISS 04 Sep 14:35:58 14:39:12 65° 221° (SW) 14:42:25 145.825
ITUPSAT 1 04 Sep 14:36:35 14:41:13 49° 100° (E) 14:45:50 437.325
GONETS M04 04 Sep 14:36:44 14:45:28 67° 267° (W) 14:54:09
BEESAT 2 04 Sep 14:40:36 14:44:41 76° 302° (WNW) 14:48:49 435.950
SPROUT 04 Sep 14:48:12 14:49:45 11° 296° (WNW) 14:51:04 437.525
RS-15 04 Sep 15:05:58 15:15:56 45° 110° (ESE) 15:26:26 29.354- 29.394
BEESAT 04 Sep 15:06:58 15:11:44 79° 284° (WNW) 15:16:28 436.000
KKS-1 04 Sep 15:10:56 15:13:56 18° 92° (E) 15:17:05 437.445
JAS-2 04 Sep 15:18:36 15:26:23 83° 257° (WSW) 15:34:16 435.910
HORYU 2 04 Sep 15:20:04 15:23:39 25° 68° (ENE) 15:27:21 437.375
ITAMSAT 1 04 Sep 15:30:39 15:35:18 32° 264° (W) 15:39:54 435.822/435.867
SWISSCUBE 04 Sep 15:33:52 15:38:17 38° 289° (WNW) 15:42:39 437.505
Gurwin Techsat 1B 04 Sep 15:37:56 15:42:15 24° 267° (W) 15:46:27 435.225
AIST 2 04 Sep 15:45:46 15:50:01 81° 301° (WNW) 15:54:17 435.215
AO-7 04 Sep 15:52:10 16:00:30 80° 70° (ENE) 16:08:51 29.400- 29.500
BEESAT 3 04 Sep 16:03:31 16:04:50 11° 320° (NW) 16:06:01 437.485
ITUPSAT 1 04 Sep 16:15:31 16:18:45 18° 295° (WNW) 16:21:49 437.325
STARS 04 Sep 16:16:53 16:21:16 55° 100° (E) 16:25:37 437.465
Cosmos 2499 04 Sep 16:24:39 16:32:47 49° 271° (W) 16:40:15 435.465 / 435.565
GONETS M04 04 Sep 16:38:52 16:40:50 11° 284° (WNW) 16:41:59
KKS-1 04 Sep 16:46:33 16:50:47 40° 288° (WNW) 16:54:57 437.445
CUTE-I 04 Sep 16:50:42 16:51:12 10° 59° (ENE) 16:52:03 437.470
HORYU 2 04 Sep 16:56:11 17:00:11 30° 264° (W) 17:04:08 437.375
JAS-2 04 Sep 17:08:00 17:12:34 16° 276° (W) 17:16:40 435.910
RS-15 04 Sep 17:17:32 17:28:14 53° 313° (NW) 17:39:19 29.354- 29.394
AIST 2 04 Sep 17:28:01 17:29:20 11° 321° (NW) 17:30:28 435.215
MOZHAYETS 4 04 Sep 17:29:36 17:34:11 86° 102° (ESE) 17:38:44
Cubesat XI-IV 04 Sep 17:42:24 17:47:01 32° 69° (ENE) 17:51:44 437.490
AO-7 04 Sep 17:48:11 17:54:16 21° 270° (W) 17:59:56 29.400- 29.500
STARS 04 Sep 17:54:50 17:57:16 14° 295° (WNW) 17:59:30 437.465
O/OREOS (USA 219) 04 Sep 17:55:40 17:59:39 32° 105° (ESE) 18:03:45 437.305
CUBESAT XI-V 04 Sep 17:59:46 18:02:20 15° 90° (E) 18:05:07 437.345
CUTE-I 04 Sep 18:25:13 18:30:31 79° 76° (ENE) 18:35:52 437.470
AIST 1 04 Sep 18:45:22 18:49:31 43° 78° (ENE) 18:53:42
Cosmos 2491 04 Sep 18:51:56 18:58:53 27° 66° (ENE) 19:06:07 435.465 / 435.565
BRITE-PL 04 Sep 19:14:40 19:18:46 37° 71° (ENE) 19:23:14 437.365/2234.400
DOVE 4 04 Sep 19:14:58 19:17:27 15° 63° (ENE) 19:20:12 437.250
GOMX 1 04 Sep 19:21:24 19:25:14 26° 68° (ENE) 19:29:23 467.674
Cubesat XI-IV 04 Sep 19:22:24 19:27:07 31° 264° (W) 19:31:47 437.490
STRAND 1 04 Sep 19:33:36 19:38:16 36° 97° (E) 19:42:59 437.568
O/OREOS (USA 219) 04 Sep 19:35:22 19:39:08 24° 302° (WNW) 19:42:53 437.305
CUBESAT XI-V 04 Sep 19:35:36 19:40:08 51° 286° (WNW) 19:44:39 437.345
RS-15 04 Sep 19:36:01 19:44:15 22° 344° (NNW) 19:52:34 29.354- 29.394
PRISM 04 Sep 19:43:24 19:46:56 28° 96° (E) 19:50:32 437.425
CUTE 1.7 + AOD 2 04 Sep 19:50:03 19:53:04 19° 68° (ENE) 19:56:12 437.475
CANX-2 04 Sep 20:03:59 20:07:42 30° 71° (ENE) 20:11:30 2200.000
HO-68 04 Sep 20:06:38 20:13:30 52° 68° (ENE) 20:20:26 435.675
CUTE-I 04 Sep 20:09:16 20:11:20 12° 273° (W) 20:13:02 437.470
SEEDS 04 Sep 20:17:24 20:21:05 30° 71° (ENE) 20:24:49 437.485
AIST 1 04 Sep 20:24:22 20:26:50 14° 273° (W) 20:29:05
UWE-3 04 Sep 20:24:31 20:25:26 11° 63° (ENE) 20:26:38 435.000/436.395/437.385
CUBEBUG 2 04 Sep 20:25:21 20:27:50 15° 65° (ENE) 20:30:32 437.445
COMPASS 1 04 Sep 20:31:39 20:35:26 34° 72° (ENE) 20:39:14 437.405
AAUSAT CUBESAT 2 04 Sep 20:37:52 20:41:36 33° 72° (ENE) 20:45:23 437.432
Cosmos 2491 04 Sep 20:47:53 20:56:33 66° 267° (W) 21:05:11 435.465 / 435.565
Oscar 11 04 Sep 20:48:09 20:51:17 20° 68° (ENE) 20:54:32 145.826/435.025
DOVE 4 04 Sep 20:49:57 20:54:36 65° 260° (W) 20:59:36 437.250
YUBILEINY 04 Sep 20:51:42 21:00:18 65° 93° (E) 21:09:02 435.215
BRITE-PL 04 Sep 20:54:09 20:57:32 20° 270° (W) 21:00:59 437.365/2234.400
GOMX 1 04 Sep 20:59:08 21:03:16 31° 266° (W) 21:07:36 467.674
CINEMA 3 04 Sep 21:02:25 21:07:10 76° 76° (ENE) 21:12:08 145.822/145.860
STRAND 1 04 Sep 21:13:06 21:17:21 26° 293° (WNW) 21:21:30 437.568
PRISM 04 Sep 21:19:00 21:22:15 22° 291° (WNW) 21:25:25 437.425
CUTE 1.7 + AOD 2 04 Sep 21:24:49 21:28:46 35° 263° (W) 21:32:41 437.475
Cosmos 2504 04 Sep 21:36:10 21:40:10 15° 78° (ENE) 21:44:48 435.465 / 435.565
ZACube-1 04 Sep 21:39:47 21:44:10 49° 73° (ENE) 21:48:38 437.345
CANX-2 04 Sep 21:40:18 21:43:41 22° 267° (W) 21:46:57 2200.000
FUNcube-1 04 Sep 21:43:00 21:47:25 51° 74° (ENE) 21:51:54 145.935
HUMSAT D 04 Sep 21:48:11 21:51:32 23° 69° (ENE) 21:54:59 437.325/437.525
SEEDS 04 Sep 21:53:36 21:56:55 21° 267° (W) 22:00:08 437.485
RS-15 04 Sep 21:53:56 22:02:25 23° 19° (NNE) 22:11:23 29.354- 29.394
HO-68 04 Sep 21:55:25 22:01:33 29° 266° (W) 22:07:33 435.675
UWE-3 04 Sep 21:56:41 22:01:20 83° 258° (WSW) 22:06:03 435.000/436.395/437.385
VELOX 1 04 Sep 21:57:36 21:58:28 11° 63° (ENE) 21:59:34 145.980
CUBEBUG 2 04 Sep 21:59:23 22:04:01 61° 260° (W) 22:08:46 437.445
DELFI C3 04 Sep 22:04:23 22:08:26 87° 257° (WSW) 22:12:30 145.870
COMPASS 1 04 Sep 22:08:09 22:11:12 19° 268° (W) 22:14:08 437.405
50 SAT 04 Sep 22:12:16 22:14:41 16° 68° (ENE) 22:17:14 437.505
AAUSAT CUBESAT 2 04 Sep 22:14:15 22:17:18 19° 268° (W) 22:20:14 437.432
TIGRISAT 04 Sep 22:20:10 22:21:07 11° 87° (E) 22:22:20 435.000
DX 1 04 Sep 22:23:06 22:26:56 32° 70° (ENE) 22:30:49 434.975-435.025
Oscar 11 04 Sep 22:23:16 22:27:16 34° 263° (W) 22:31:14 145.826/435.025
UKube-1 04 Sep 22:28:24 22:32:12 32° 70° (ENE) 22:36:06 .
ANTELSAT 04 Sep 22:37:26 22:40:30 18° 91° (E) 22:43:39 437.575/2403.000
BEESAT 3 04 Sep 22:41:27 22:45:16 40° 53° (NE) 22:49:03 437.485
CINEMA 3 04 Sep 22:43:38 22:45:04 11° 274° (W) 22:46:10 145.822/145.860
Cosmos 2491 04 Sep 22:50:22 22:51:56 10° 284° (WNW) 22:52:41 435.465 / 435.565
CUBEBUG 1 04 Sep 22:50:29 22:53:54 24° 69° (ENE) 22:57:26 437.445
YUBILEINY 04 Sep 22:50:35 22:57:54 27° 294° (WNW) 23:05:00 435.215
BEESAT 2 04 Sep 23:00:23 23:04:19 48° 54° (NE) 23:08:12 435.950
AISAT 04 Sep 23:03:18 23:07:37 57° 74° (ENE) 23:11:59 437.250
M-CUBED/EXP-1 PRIME 04 Sep 23:07:08 23:09:30 16° 96° (E) 23:11:52 437.505
ESTCUBE 1 04 Sep 23:07:15 23:11:29 45° 73° (ENE) 23:15:48 437.505/2401.250
SO-50 04 Sep 23:15:27 23:18:37 18° 110° (ESE) 23:22:00 436.795
ZACube-1 04 Sep 23:17:59 23:20:50 16° 270° (W) 23:23:31 437.345
DANDE 04 Sep 23:21:05 23:23:43 18° 83° (E) 23:27:03 436.750
FUNcube-1 04 Sep 23:21:23 23:24:05 15° 271° (W) 23:26:35 145.935
Cosmos 2504 04 Sep 23:22:56 23:31:08 82° 95° (E) 23:39:48 435.465 / 435.565
HUMSAT D 04 Sep 23:23:17 23:27:08 30° 264° (W) 23:30:56 437.325/437.525
UNISAT 6 04 Sep 23:27:16 23:31:48 66° 101° (ESE) 23:36:10 437.425
BUGSAT 1 04 Sep 23:28:17 23:30:11 13° 90° (E) 23:32:17 437.445
VELOX 1 04 Sep 23:30:04 23:34:27 75° 258° (WSW) 23:38:53 145.980
DUCHIFAT 1 04 Sep 23:39:45 23:43:28 29° 96° (E) 23:47:11 145.980
POLYITAN 1 04 Sep 23:42:44 23:46:37 33° 96° (E) 23:50:32 437.675
POPSAT HIP 1 04 Sep 23:43:26 23:47:19 33° 96° (E) 23:51:12 437.405
50 SAT 04 Sep 23:45:16 23:48:56 36° 262° (W) 23:52:36 437.505
TIGRISAT 04 Sep 23:53:56 23:58:27 65° 285° (WNW) 00:02:48 435.000
PCSat 04 Sep 23:57:59 00:01:08 16° 106° (ESE) 00:04:31 145.827
NANOSAT C BR1 04 Sep 23:58:41 00:02:51 49° 99° (E) 00:07:00 145.865
CUSAT 1 04 Sep 23:59:32 00:03:44 88° 102° (ESE) 00:09:29 437.405
DX 1 04 Sep 23:59:51 00:03:14 21° 266° (W) 00:06:32 434.975-435.025
QB50P2 05 Sep 00:01:24 00:05:38 56° 100° (E) 00:09:51 145.880/145.840
SPROUT 05 Sep 00:02:59 00:07:04 45° 73° (ENE) 00:11:13 437.525
UKube-1 05 Sep 00:05:06 00:08:25 21° 266° (W) 00:11:38 .
RS-15 05 Sep 00:06:53 00:18:24 56° 49° (NE) 00:30:23 29.354- 29.394
AIST 2 05 Sep 00:08:18 00:12:22 49° 54° (NE) 00:16:22 435.215
ANTELSAT 05 Sep 00:13:16 00:17:29 38° 288° (WNW) 00:21:34 437.575/2403.000
QB50P1 05 Sep 00:14:18 00:18:36 78° 102° (ESE) 00:22:53 145.935-145.965
BEESAT 3 05 Sep 00:20:16 00:22:53 17° 249° (WSW) 00:25:22 437.485
CUBEBUG 1 05 Sep 00:26:22 00:30:10 29° 265° (W) 00:33:55 437.445
AUBIESAT-1 05 Sep 00:30:50 00:34:29 47° 292° (WNW) 00:37:51 437.475
BEESAT 05 Sep 00:38:14 00:39:54 12° 63° (ENE) 00:41:50 436.000
BEESAT 2 05 Sep 00:39:46 00:41:59 14° 250° (WSW) 00:44:01 435.950
M-CUBED/EXP-1 PRIME 05 Sep 00:41:05 00:44:28 30° 295° (WNW) 00:47:35 437.505
AISAT 05 Sep 00:42:44 00:44:38 12° 271° (W) 00:46:19 437.250
ESTCUBE 1 05 Sep 00:45:49 00:48:39 16° 269° (W) 00:51:18 437.505/2401.250
TISAT 1 05 Sep 00:48:11 00:52:23 84° 78° (ENE) 00:56:39 437.305
SO-50 05 Sep 00:54:05 00:58:46 53° 306° (NW) 01:03:37 436.795
BUGSAT 1 05 Sep 01:01:50 01:05:59 51° 286° (WNW) 01:10:07 437.445
SWISSCUBE 05 Sep 01:02:40 01:06:20 23° 67° (ENE) 01:10:07 437.505
DANDE 05 Sep 01:02:51 01:06:24 31° 291° (WNW) 01:10:58 436.750
UNISAT 6 05 Sep 01:06:08 01:08:01 12° 296° (WNW) 01:09:41 437.425
DUCHIFAT 1 05 Sep 01:15:41 01:19:08 23° 291° (WNW) 01:22:28 145.980
Cosmos 2504 05 Sep 01:18:26 01:24:36 21° 297° (WNW) 01:30:31 435.465 / 435.565
POLYITAN 1 05 Sep 01:19:04 01:22:20 21° 292° (WNW) 01:25:28 437.675
POPSAT HIP 1 05 Sep 01:19:44 01:22:59 21° 292° (WNW) 01:26:08 437.405
NANOSAT C BR1 05 Sep 01:35:52 01:38:18 15° 294° (WNW) 01:40:34 145.865
PCSat 05 Sep 01:38:41 01:44:03 65° 301° (WNW) 01:49:28 145.827
QB50P2 05 Sep 01:39:00 01:41:05 13° 295° (WNW) 01:42:59 145.880/145.840
SPROUT 05 Sep 01:40:52 01:43:26 15° 270° (W) 01:45:49 437.525
GONETS M04 05 Sep 01:41:29 01:48:32 30° 85° (E) 01:55:53
ITUPSAT 1 05 Sep 01:42:29 01:47:06 52° 73° (ENE) 01:51:45 437.325
CUSAT 1 05 Sep 01:47:05 01:47:52 10° 307° (NW) 01:48:19 437.405
AIST 2 05 Sep 01:48:13 01:50:33 14° 250° (WSW) 01:52:42 435.215
VERMONT LUNAR 05 Sep 02:03:22 02:06:14 41° 159° (SSE) 02:09:05 437.305
KKS-1 05 Sep 02:08:57 02:11:34 16° 66° (ENE) 02:14:22 437.445
BEESAT 05 Sep 02:12:25 02:17:11 76° 258° (WSW) 02:21:59 436.000
Gurwin Techsat 1B 05 Sep 02:15:12 02:18:29 17° 90° (E) 02:22:00 435.225
RS-15 05 Sep 02:19:41 02:30:52 47° 250° (WSW) 02:42:07 29.354- 29.394
JAS-2 05 Sep 02:33:14 02:36:13 14° 83° (E) 02:39:26 435.910
Oscar 19 05 Sep 02:34:09 02:39:22 85° 102° (ESE) 02:44:34 437.125/150
SWISSCUBE 05 Sep 02:39:37 02:44:01 36° 263° (W) 02:48:23 437.505
SO-50 05 Sep 02:40:08 02:40:32 10° 328° (NNW) 02:40:46 436.795
Cosmos 2499 05 Sep 03:06:54 03:13:47 29° 84° (E) 03:21:08 435.465 / 435.565
STARS 05 Sep 03:12:47 03:16:57 44° 72° (ENE) 03:21:12 437.465
ITUPSAT 1 05 Sep 03:22:24 03:25:21 16° 269° (W) 03:28:06 437.325
PCSat 05 Sep 03:26:36 03:28:40 12° 322° (NW) 03:30:29 145.827
GONETS M04 05 Sep 03:36:28 03:44:58 56° 283° (WNW) 03:53:30
VERMONT LUNAR 05 Sep 03:39:33 03:42:33 77° 355° (N) 03:45:33 437.305
KKS-1 05 Sep 03:43:31 03:47:50 49° 260° (W) 03:52:12 437.445
ITAMSAT 1 05 Sep 03:43:32 03:48:45 87° 285° (WNW) 03:53:57 435.822/435.867
Gurwin Techsat 1B 05 Sep 03:53:42 03:58:55 57° 287° (WNW) 04:04:06 435.225
AO-7 05 Sep 03:55:37 04:02:15 27° 93° (E) 04:09:06 29.400- 29.500
O/OREOS (USA 219) 05 Sep 04:05:56 04:10:28 54° 65° (ENE) 04:14:57 437.305
JAS-2 05 Sep 04:15:42 04:22:31 83° 285° (WNW) 04:28:27 435.910
Oscar 19 05 Sep 04:15:54 04:18:05 12° 299° (WNW) 04:20:00 437.125/150
PHONESAT 2.4 05 Sep 04:17:35 04:20:51 42° 158° (SSE) 04:24:06 2401.200-2431.200
MOZHAYETS 4 05 Sep 04:30:24 04:34:59 73° 75° (ENE) 04:39:35
